• In Belarus
  • List of Countries
  • For 7 days
  • Water Temperature
  • Satellite Maps
  • Weather Map
  • Weather Widgets
  • user-avatar
    Login

    Hourly Weather Satif

    Today, 27 July, Thursday

    Time Temperature Precipitation Wind Pressure Humidity
    00:00 +21°C° 0 mm 2 mps 673 mmHg 60%
    01:00 +20°C° 0 mm 2 mps 673 mmHg 60%
    02:00 +21°C° 0 mm 1 mps 673 mmHg 61%
    03:00 +21°C° 0 mm 1 mps 673 mmHg 61%
    04:00 +21°C° 0 mm 1 mps 673 mmHg 60%
    05:00 +21°C° 0 mm 1 mps 673 mmHg 59%
    06:00 +21°C° 0 mm 1 mps 673 mmHg 57%
    07:00 +23°C° 0 mm 1 mps 674 mmHg 50%
    08:00 +24°C° 0 mm 1 mps 674 mmHg 43%
    09:00 +25°C° 0 mm 1 mps 675 mmHg 37%
    10:00 +27°C° 0 mm 1 mps 675 mmHg 32%
    11:00 +28°C° 0 mm 1 mps 676 mmHg 28%
    12:00 +29°C° 0 mm 2 mps 676 mmHg 24%
    13:00 +30°C° 0 mm 2 mps 676 mmHg 24%
    14:00 +31°C° 0 mm 2 mps 676 mmHg 23%
    15:00 +31°C° 0 mm 2 mps 676 mmHg 23%
    16:00 +31°C° 0 mm 3 mps 675 mmHg 24%
    17:00 +30°C° 0 mm 3 mps 675 mmHg 26%
    18:00 +30°C° 0 mm 3 mps 675 mmHg 28%
    19:00 +29°C° 0 mm 2 mps 675 mmHg 31%
    20:00 +28°C° 0 mm 2 mps 675 mmHg 35%
    21:00 +27°C° 0 mm 2 mps 675 mmHg 38%
    22:00 +26°C° 0 mm 1 mps 675 mmHg 39%
    23:00 +26°C° 0 mm 1 mps 675 mmHg 40%

    Tomorrow, 28 July, Friday

    Time Temperature Precipitation Wind Pressure Humidity
    00:00 +26°C° 0 mm 1 mps 675 mmHg 41%
    01:00 +25°C° 0 mm 1 mps 674 mmHg 42%
    02:00 +25°C° 0 mm 1 mps 674 mmHg 43%
    03:00 +25°C° 0 mm 1 mps 674 mmHg 44%
    04:00 +25°C° 0 mm 1 mps 674 mmHg 41%
    05:00 +26°C° 0 mm 1 mps 674 mmHg 39%
    06:00 +26°C° 0 mm 1 mps 675 mmHg 37%
    07:00 +28°C° 0 mm 2 mps 675 mmHg 32%
    08:00 +30°C° 0 mm 2 mps 676 mmHg 28%
    09:00 +31°C° 0 mm 3 mps 677 mmHg 24%
    10:00 +33°C° 0 mm 3 mps 677 mmHg 22%
    11:00 +34°C° 0 mm 3 mps 677 mmHg 20%
    12:00 +35°C° 0 mm 3 mps 677 mmHg 18%
    13:00 +36°C° 0 mm 3 mps 677 mmHg 18%
    14:00 +36°C° 0 mm 3 mps 677 mmHg 17%
    15:00 +36°C° 0 mm 3 mps 676 mmHg 17%
    16:00 +36°C° 0 mm 3 mps 676 mmHg 18%
    17:00 +35°C° 0 mm 3 mps 676 mmHg 20%
    18:00 +34°C° 0 mm 2 mps 676 mmHg 21%
    19:00 +32°C° 0 mm 2 mps 676 mmHg 24%
    20:00 +31°C° 0 mm 2 mps 676 mmHg 27%
    21:00 +30°C° 0 mm 2 mps 676 mmHg 29%
    22:00 +29°C° 0 mm 2 mps 676 mmHg 30%
    23:00 +29°C° 0 mm 1 mps 676 mmHg 31%

    Day after tomorrow, 29 July, Saturday

    Time Temperature Precipitation Wind Pressure Humidity
    00:00 +28°C° 0 mm 1 mps 675 mmHg 32%
    01:00 +28°C° 0 mm 1 mps 675 mmHg 33%
    02:00 +28°C° 0 mm 1 mps 675 mmHg 33%
    03:00 +27°C° 0 mm 1 mps 675 mmHg 34%
    04:00 +28°C° 0 mm 2 mps 675 mmHg 33%
    05:00 +28°C° 0 mm 2 mps 675 mmHg 33%
    06:00 +29°C° 0 mm 2 mps 675 mmHg 32%
    07:00 +30°C° 0 mm 3 mps 676 mmHg 29%
    08:00 +33°C° 0 mm 4 mps 677 mmHg 26%
    09:00 +35°C° 0 mm 5 mps 677 mmHg 22%
    10:00 +35°C° 0 mm 6 mps 677 mmHg 21%
    11:00 +36°C° 0 mm 6 mps 677 mmHg 20%
    12:00 +38°C° 0 mm 6 mps 677 mmHg 19%
    13:00 +38°C° 0 mm 6 mps 677 mmHg 19%
    14:00 +39°C° 0 mm 5 mps 677 mmHg 18%
    15:00 +39°C° 0 mm 5 mps 676 mmHg 18%
    16:00 +37°C° 0 mm 5 mps 676 mmHg 19%
    17:00 +36°C° 0 mm 4 mps 676 mmHg 21%
    18:00 +36°C° 0 mm 4 mps 676 mmHg 22%
    19:00 +35°C° 0 mm 3 mps 676 mmHg 24%
    20:00 +32°C° 0 mm 2 mps 676 mmHg 27%
    21:00 +31°C° 0 mm 1 mps 676 mmHg 30%
    22:00 +31°C° 0 mm 1 mps 676 mmHg 30%
    23:00 +30°C° 0 mm 1 mps 675 mmHg 31%

    30 July, Sunday

    Time Temperature Precipitation Wind Pressure Humidity
    00:00 +30°C° 0 mm 1 mps 675 mmHg 31%
    01:00 +30°C° 0 mm 2 mps 675 mmHg 31%
    02:00 +29°C° 0 mm 2 mps 674 mmHg 31%
    03:00 +29°C° 0 mm 2 mps 674 mmHg 31%
    04:00 +29°C° 0 mm 2 mps 674 mmHg 31%
    05:00 +29°C° 0 mm 3 mps 675 mmHg 31%
    06:00 +29°C° 0 mm 3 mps 675 mmHg 31%
    07:00 +31°C° 0 mm 3 mps 675 mmHg 27%
    08:00 +33°C° 0 mm 4 mps 676 mmHg 23%
    09:00 +35°C° 0 mm 5 mps 676 mmHg 20%
    10:00 +35°C° 0 mm 5 mps 676 mmHg 19%
    11:00 +36°C° 0 mm 5 mps 676 mmHg 19%
    12:00 +37°C° 0 mm 5 mps 676 mmHg 19%
    13:00 +37°C° 0 mm 4 mps 676 mmHg 19%
    14:00 +37°C° 0 mm 4 mps 676 mmHg 19%
    15:00 +37°C° 0 mm 4 mps 675 mmHg 20%
    16:00 +36°C° 0 mm 3 mps 675 mmHg 21%
    17:00 +36°C° 0 mm 3 mps 675 mmHg 23%
    18:00 +35°C° 0 mm 2 mps 675 mmHg 24%
    19:00 +34°C° 0 mm 2 mps 675 mmHg 27%
    20:00 +32°C° 0 mm 1 mps 675 mmHg 30%
    21:00 +31°C° 0 mm 1 mps 675 mmHg 33%
    22:00 +30°C° 0 mm 1 mps 675 mmHg 33%
    23:00 +30°C° 0 mm 1 mps 674 mmHg 33%

    31 July, Monday

    Time Temperature Precipitation Wind Pressure Humidity
    00:00 +30°C° 0 mm 1 mps 674 mmHg 33%
    01:00 +29°C° 0 mm 1 mps 674 mmHg 33%
    02:00 +29°C° 0 mm 2 mps 673 mmHg 32%
    03:00 +29°C° 0 mm 2 mps 673 mmHg 31%
    04:00 +29°C° 0 mm 2 mps 673 mmHg 30%
    05:00 +29°C° 0 mm 2 mps 674 mmHg 29%
    06:00 +30°C° 0 mm 3 mps 674 mmHg 27%
    07:00 +31°C° 0 mm 3 mps 674 mmHg 24%
    08:00 +34°C° 0 mm 4 mps 675 mmHg 21%
    09:00 +36°C° 0 mm 5 mps 675 mmHg 18%
    10:00 +37°C° 0 mm 5 mps 675 mmHg 17%
    11:00 +39°C° 0 mm 5 mps 675 mmHg 16%
    12:00 +40°C° 0 mm 5 mps 675 mmHg 16%
    13:00 +40°C° 0 mm 4 mps 675 mmHg 15%
    14:00 +40°C° 0 mm 4 mps 675 mmHg 15%
    15:00 +40°C° 0 mm 4 mps 674 mmHg 15%
    16:00 +39°C° 0 mm 3 mps 674 mmHg 16%
    17:00 +38°C° 0 mm 2 mps 674 mmHg 16%
    18:00 +38°C° 0 mm 2 mps 674 mmHg 17%
    19:00 +37°C° 0 mm 2 mps 674 mmHg 19%
    20:00 +36°C° 0 mm 2 mps 674 mmHg 20%
    21:00 +35°C° 0 mm 3 mps 675 mmHg 21%
    22:00 +34°C° 0 mm 3 mps 675 mmHg 22%
    23:00 +34°C° 0 mm 3 mps 674 mmHg 22%

    1 August, Tuesday

    Time Temperature Precipitation Wind Pressure Humidity
    00:00 +34°C° 0 mm 4 mps 674 mmHg 23%
    01:00 +33°C° 0 mm 3 mps 674 mmHg 23%
    02:00 +33°C° 0 mm 3 mps 674 mmHg 22%
    03:00 +33°C° 0 mm 3 mps 674 mmHg 22%
    04:00 +33°C° 0 mm 3 mps 674 mmHg 22%
    05:00 +32°C° 0 mm 2 mps 674 mmHg 23%
    06:00 +32°C° 0 mm 2 mps 674 mmHg 24%
    07:00 +34°C° 0 mm 2 mps 675 mmHg 22%
    08:00 +35°C° 0 mm 3 mps 675 mmHg 20%
    09:00 +37°C° 0 mm 3 mps 676 mmHg 18%
    10:00 +37°C° 0 mm 3 mps 676 mmHg 17%
    11:00 +38°C° 0 mm 3 mps 676 mmHg 17%
    12:00 +38°C° 0 mm 3 mps 676 mmHg 17%
    13:00 +39°C° 0 mm 3 mps 676 mmHg 17%
    14:00 +39°C° 0 mm 3 mps 676 mmHg 18%
    15:00 +39°C° 0 mm 3 mps 676 mmHg 18%
    16:00 +38°C° 0 mm 2 mps 676 mmHg 21%
    17:00 +37°C° 0 mm 2 mps 676 mmHg 23%
    18:00 +36°C° 0 mm 2 mps 676 mmHg 26%
    19:00 +35°C° 0 mm 2 mps 676 mmHg 29%
    20:00 +33°C° 0 mm 1 mps 676 mmHg 33%
    21:00 +32°C° 0 mm 1 mps 676 mmHg 36%
    22:00 +31°C° 0 mm 1 mps 676 mmHg 37%
    23:00 +31°C° 0 mm 1 mps 676 mmHg 39%
    Show more